View from above orbital plane
|
View from above satellite
|
Ground track
|
The orbit data is extracted from the following two-line orbital elements,
1 36416U 10009D 21101.75289845 -.00000071 00000-0 18058-4 0 9998
2 36416 63.4189 118.7685 0524417 355.5320 4.1129 13.69590379555199
Epoch (UTC): | 11 April 2021 18:04:10 |
Eccentricity: | 0.0524417 |
inclination: | 63.4189° |
perigee height: | 614 km |
apogee height: | 1388 km |
right ascension of ascending node: | 118.7685° |
argument of perigee: | 355.5320° |
revolutions per day: | 13.69590379 |
mean anomaly at epoch: | 4.1129° |
orbit number at epoch: | 55519 |
The dashed part of the orbit path shows where the satellite is in the earth's shadow,
|
|